{"data":{"norad_id":65698,"epoch":"2026-09-19T05:39:12.422880Z","epoch_age_seconds":217780,"freshness":"STALE","line1":"1 65698U 25212Y   26262.23556045  .00025434  00000+0  76099-3 0  9995","line2":"2 65698  53.1597 163.3126 0003453  80.4617 279.6776 15.34411512 56922","mean_motion":15.34411512,"eccentricity":0.0003453,"inclination_deg":53.1597,"raan_deg":163.3126,"arg_perigee_deg":80.4617,"mean_anomaly_deg":279.6776,"bstar":0.00076099,"rev_number":5692,"period_min":93.847053983782,"perigee_km":460.30689401078,"apogee_km":465.03115465119,"semimajor_km":6840.806024331,"source":"CELESTRAK","updated_at":"2026-09-21T09:00:35.689710Z"}}